Theta_e
317 318 318 317 317 317 317 317 318 317 317 316 316 316 316 317 317 318 318 318 318 318 318 319 321 322 315 303 309 335 356 351 338 332 325 318 317 318 315 318 317 310 312 313 313 313 315
317 317 317 317 316 316 316 316 316 316 316 316 316 316 316 317 317 317 317 317 317 317 318 319 321 322 315 303 315 347 340 336 332 327 322 319 320 324 318 316 310 312 310 310 311 312 314
316 316 316 316 316 315 315 315 315 314 315 315 315 315 316 316 316 316 316 316 316 317 318 319 320 321 313 304 314 336 335 329 330 326 319 322 322 319 316 312 314 308 305 308 310 310 310
316 316 316 316 316 316 315 315 314 314 314 315 315 315 315 315 315 315 315 314 315 317 319 321 322 319 304 315 314 314 327 328 329 326 322 322 321 314 310 311 307 303 300 297 307 309 311
317 317 317 317 317 316 315 315 315 316 315 315 314 314 315 314 314 314 313 313 316 320 323 326 315 311 303 321 315 315 312 316 327 324 321 326 318 310 307 300 297 297 295 297 303 310 308
319 318 317 316 316 316 316 316 315 315 315 315 314 314 314 314 313 313 312 313 317 318 320 321 320 303 306 307 314 316 313 320 323 321 320 317 309 302 300 296 292 294 295 297 299 307 307
320 320 318 318 317 317 317 316 315 315 314 314 314 314 314 313 313 312 309 306 302 301 304 301 304 307 310 314 316 313 315 312 318 316 308 311 302 298 301 301 303 301 299 298 303 307 304
321 320 320 318 318 317 317 316 316 315 314 314 314 313 313 313 311 311 305 303 304 303 296 305 307 306 309 310 305 309 313 305 307 305 308 305 300 307 307 306 304 302 300 299 303 307 303
321 320 320 319 318 317 317 316 315 315 314 314 313 313 312 311 310 304 298 301 306 303 294 300 304 304 304 306 304 306 308 307 303 303 304 302 306 310 307 305 303 301 297 299 300 304 302
321 321 320 319 319 318 317 316 315 315 314 313 313 313 312 310 301 300 301 306 307 304 289 296 299 304 304 304 302 311 311 308 303 301 303 301 307 305 304 303 304 297 305 303 303 299 293
322 321 321 320 319 318 317 316 315 315 314 313 313 312 311 310 298 300 303 304 307 300 283 302 303 308 304 302 305 306 312 305 302 302 300 300 303 302 302 304 306 302 306 304 303 296 292
322 322 321 320 320 319 317 316 315 314 313 313 312 311 311 304 300 303 306 304 298 290 284 299 304 302 302 304 303 307 306 306 307 303 302 302 307 306 305 308 308 308 302 299 296 292 288
322 321 321 321 320 319 317 316 315 314 313 312 311 309 307 306 299 300 302 298 288 284 298 295 297 300 300 299 303 303 301 299 296 293 293 299 300 305 308 303 306 303 293 289 288 287 288
320 321 320 320 320 319 317 316 315 314 313 311 309 308 305 306 302 303 300 292 283 293 295 301 300 299 296 300 301 303 298 296 298 296 294 294 293 300 306 302 301 300 295 289 285 285 290
320 320 321 320 320 319 318 316 314 313 312 310 307 298 299 305 307 302 295 285 287 294 299 297 297 294 295 300 300 299 299 298 300 300 293 293 293 304 305 306 304 300 297 298 291 288 288
319 319 319 319 318 319 318 316 314 313 311 308 299 296 299 308 307 300 291 289 291 299 299 298 292 295 293 296 296 295 297 303 304 306 305 301 294 300 305 306 307 302 303 294 290 286 285
319 318 318 317 318 319 318 315 313 311 309 307 296 296 304 307 306 297 288 288 296 301 302 297 295 294 295 295 295 294 295 302 304 304 305 299 296 298 303 301 300 300 299 298 295 292 288
317 318 318 317 317 319 318 315 312 309 307 300 293 291 304 306 295 292 291 296 301 301 303 301 298 296 295 296 295 295 296 300 306 304 302 304 297 292 298 306 307 303 300 299 296 291 290
317 316 317 317 317 318 318 315 312 309 307 295 290 293 303 302 289 288 292 297 302 301 301 300 297 301 298 295 291 296 299 304 306 305 300 302 297 291 297 299 304 300 302 300 296 294 296
316 316 316 317 317 317 317 315 312 310 309 297 290 289 296 297 295 294 295 297 300 307 303 304 302 303 299 295 296 294 297 303 305 306 323 307 295 295 291 297 301 300 303 304 299 293 293
315 315 315 315 317 318 317 315 313 311 310 297 292 293 292 288 291 292 292 297 298 300 304 302 300 301 298 294 296 296 299 303 306 309 306 301 296 297 301 305 305 303 303 308 302 302 295
314 313 314 316 317 318 317 315 313 311 307 295 292 292 294 291 292 291 293 296 299 303 301 299 299 303 300 294 298 298 301 299 297 302 300 304 296 299 299 306 312 311 314 313 310 309 310
314 312 313 315 317 318 317 315 313 310 304 295 298 297 294 292 289 289 290 294 298 300 304 305 303 301 301 303 307 307 306 303 303 299 300 302 297 295 294 302 303 303 310 310 311 312 309
313 313 312 314 317 317 317 315 313 310 305 298 296 294 291 288 290 291 294 296 296 300 299 304 307 303 307 311 310 309 306 303 303 301 302 301 299 297 294 297 292 306 314 313 309 310 314
313 313 312 313 316 317 317 316 313 311 309 298 298 294 291 288 292 294 294 293 295 298 299 302 305 308 308 305 300 297 298 299 300 302 299 303 299 295 293 294 302 307 309 308 309 307 315
313 313 312 312 315 317 317 316 314 311 309 300 298 298 294 290 289 296 293 293 291 291 296 300 305 304 306 300 298 293 291 296 296 301 304 301 298 296 295 293 291 304 310 314 312 302 316
312 312 313 312 314 317 317 316 314 312 309 301 298 299 295 290 294 293 290 290 293 294 293 297 298 303 309 301 297 294 294 301 296 295 294 297 296 293 294 293 302 311 312 314 296 299 314
312 312 312 312 313 316 317 316 315 313 312 303 298 300 297 292 295 298 299 293 293 292 292 295 296 302 304 297 294 295 294 298 296 299 295 294 295 293 294 294 293 314 314 308 310 314 314
310 312 312 312 314 316 317 316 315 313 312 307 295 301 302 296 296 302 303 303 301 299 293 292 294 304 303 300 300 302 297 298 296 294 302 295 300 298 298 299 310 312 312 319 316 314 315
Wind_Speed
14 15 16 16 17 18 18 18 17 17 19 20 22 23 24 23 23 24 24 24 23 21 19 17 15 16 7 4 12 4 7 6 6 3 4 3 3 2 4 6 9 3 9 11 13 16 17
14 15 15 15 16 16 17 18 19 19 20 21 22 22 22 22 23 24 25 25 24 21 21 16 12 13 1 7 6 7 8 6 4 4 4 6 7 5 6 5 3 5 9 14 11 16 12
13 14 15 16 16 17 17 18 19 20 21 22 23 24 24 25 25 24 25 26 26 24 20 17 9 3 2 20 2 4 8 7 6 7 5 6 11 2 5 8 5 5 10 14 14 10 12
11 12 12 13 13 15 15 17 17 18 19 19 21 23 24 25 26 27 30 30 28 25 20 15 6 3 9 5 9 9 8 6 6 9 7 8 6 5 5 5 10 7 3 6 11 11 19
10 11 12 14 15 15 17 18 19 19 19 20 21 23 24 25 26 27 29 33 32 16 5 7 4 4 11 12 4 12 11 13 9 7 6 10 5 7 3 4 7 6 8 8 18 14 7
8 9 10 11 12 12 13 14 15 17 19 20 20 22 24 25 28 27 32 34 19 6 4 5 4 3 8 8 6 11 6 12 9 5 6 3 1 3 3 6 8 7 7 6 10 16 8
9 10 12 13 14 14 15 16 18 19 20 22 23 25 27 28 28 25 17 9 10 6 7 7 12 8 18 20 21 7 8 4 7 4 6 6 2 7 14 10 13 7 8 14 20 19 6
11 12 12 12 12 13 14 15 16 18 19 21 22 23 26 29 34 28 1 4 4 6 12 9 14 19 20 18 15 26 2 5 8 14 5 1 9 18 12 12 12 12 13 18 16 15 3
10 10 11 11 11 11 12 14 16 17 19 20 21 22 26 29 35 4 4 5 8 10 4 14 10 9 9 10 18 23 5 3 9 11 13 12 19 10 10 15 13 15 8 14 14 6 4
11 11 11 11 11 12 13 15 16 18 19 20 22 22 23 30 6 8 8 8 15 6 6 10 4 8 2 3 7 16 19 8 5 17 18 11 16 14 16 13 13 13 19 16 9 1 6
12 12 12 12 12 12 12 13 14 16 19 21 22 21 19 12 6 5 9 12 14 5 5 7 6 1 2 8 5 9 23 6 12 9 9 16 14 14 14 21 14 15 19 21 11 3 3
11 11 11 12 12 11 13 13 15 18 20 21 23 21 20 2 2 12 11 14 4 7 8 6 4 11 20 15 6 8 7 7 8 11 9 10 10 15 17 19 14 10 6 3 6 4 4
11 11 12 13 12 12 12 13 15 18 21 23 26 27 17 4 7 2 6 5 6 3 6 5 11 17 19 9 14 7 7 9 7 5 8 6 9 11 11 11 15 4 5 4 4 4 10
11 11 11 12 12 13 13 13 15 17 20 23 27 31 7 7 5 3 4 6 2 4 7 12 13 19 3 10 12 15 3 7 6 5 5 9 15 10 20 10 13 7 9 7 7 5 10
10 11 10 11 11 12 11 12 13 16 20 23 26 4 5 6 9 2 6 4 7 5 4 9 17 5 7 19 7 9 8 4 6 5 9 10 11 16 16 21 10 13 4 10 6 1 3
10 9 9 11 11 10 10 10 12 15 19 23 5 6 6 3 9 5 6 5 6 4 7 9 5 5 14 16 9 7 7 7 10 5 3 4 4 8 18 7 20 9 8 2 2 4 8
10 10 10 9 10 9 9 9 11 14 19 23 2 5 7 7 5 6 3 7 7 11 10 5 13 9 11 7 4 6 5 10 10 8 5 1 4 7 7 6 17 4 4 5 3 5 8
12 10 10 10 10 9 8 8 10 12 19 7 3 3 3 5 4 1 2 5 6 19 25 16 7 8 4 2 5 6 5 4 14 5 5 2 3 3 11 16 10 2 5 6 9 10 1
11 11 10 10 10 9 7 6 8 9 10 2 3 5 7 6 1 3 7 7 9 9 7 7 4 6 3 1 3 3 7 9 12 8 3 5 3 5 11 8 9 6 9 6 4 5 16
10 10 11 9 9 8 5 5 6 6 7 3 2 4 6 5 1 3 6 7 10 11 8 4 3 7 8 8 2 4 6 7 11 6 12 7 0 5 5 13 9 4 2 2 7 4 6
9 10 10 10 9 7 5 4 5 6 6 3 1 4 1 4 5 6 2 5 9 9 8 6 8 5 3 6 8 8 6 10 15 8 3 1 4 2 8 11 7 1 6 9 8 11 3
8 10 10 10 8 7 5 4 4 5 7 3 1 3 6 4 5 6 3 6 16 8 7 9 6 11 6 1 1 12 10 6 6 9 4 3 5 3 4 10 7 12 11 11 16 10 6
9 8 10 10 8 7 7 5 3 4 3 1 3 4 4 5 5 4 2 10 15 16 9 9 3 4 8 5 8 14 11 11 11 5 5 1 2 0 6 7 8 8 9 16 13 11 1
9 9 10 9 9 8 8 7 5 1 4 3 3 1 3 5 2 3 11 14 15 14 6 5 7 5 7 8 7 11 8 6 9 7 7 8 2 2 4 5 5 4 2 17 16 9 10
9 9 9 10 9 8 9 8 6 4 3 2 2 3 1 4 3 11 10 7 13 11 8 4 6 6 7 4 6 8 7 8 6 5 6 6 6 3 4 2 2 3 5 3 5 1 3
9 8 9 10 9 9 10 10 8 6 4 1 3 3 1 1 5 3 7 5 4 6 8 6 10 9 6 3 4 2 3 5 7 15 10 5 4 4 3 4 4 2 6 3 4 1 4
8 9 10 10 10 8 10 12 10 8 6 3 4 2 2 2 7 4 3 3 5 4 4 6 8 9 5 5 4 3 4 2 4 6 8 8 7 5 5 1 4 6 5 4 5 6 3
9 9 10 9 10 8 11 12 11 9 6 3 5 4 4 3 9 10 6 4 4 1 2 6 7 5 5 5 3 3 1 2 1 2 3 2 4 3 3 6 6 17 2 2 3 3 4
9 10 9 9 9 9 11 12 10 9 7 4 3 3 2 4 9 7 15 19 18 20 2 4 4 2 4 4 1 2 2 2 2 4 3 2 3 2 3 3 4 7 2 2 5 2 1
Wind_Direction
23 20 17 14 11 8 3 1 359 356 352 349 345 341 339 336 332 329 325 321 318 316 316 316 318 322 346 338 251 172 131 120 125 126 231 233 245 197 243 278 336 277 315 321 318 320 317
18 17 13 12 11 6 4 359 357 354 349 345 343 339 335 332 328 326 322 317 313 312 309 305 307 317 289 273 252 140 140 131 160 183 203 207 237 208 275 265 302 279 314 318 315 305 306
14 11 8 7 5 4 360 357 354 352 347 344 341 338 334 332 328 324 319 313 310 306 298 293 290 272 250 238 248 150 170 190 190 182 204 220 233 61 335 316 282 326 348 321 306 303 293
6 5 4 2 358 1 355 352 350 349 342 340 339 334 330 329 326 325 320 314 306 303 295 286 221 161 242 256 246 259 203 266 235 211 209 240 222 244 198 261 353 5 13 322 287 320 293
354 353 355 358 358 351 355 345 349 342 336 340 337 331 328 328 325 323 317 309 301 301 278 132 113 140 268 307 224 251 173 219 229 247 237 247 209 204 333 68 359 8 255 271 294 288 281
336 340 343 346 346 343 340 342 340 336 340 337 331 329 330 327 324 328 316 300 291 296 118 189 256 8 280 275 279 327 219 191 202 219 297 259 138 181 44 87 235 241 269 272 264 291 303
324 331 338 343 342 341 339 337 338 338 337 335 335 333 332 329 323 324 330 347 8 349 16 276 259 234 300 289 296 275 308 218 190 159 200 262 113 222 227 202 232 222 241 262 275 277 261
320 322 325 326 324 324 326 326 326 328 331 332 331 330 330 328 319 324 315 1 211 272 296 266 258 255 252 268 297 289 174 199 165 215 215 186 229 234 223 227 233 241 250 266 278 265 221
288 290 293 295 298 307 314 318 322 325 326 327 329 332 332 331 318 348 277 246 306 346 306 280 239 244 232 194 236 260 168 251 215 211 218 217 242 257 227 244 241 251 236 259 242 282 330
283 286 289 293 299 307 315 320 323 324 325 327 331 335 337 336 18 330 297 293 335 333 31 277 260 271 119 181 271 234 249 196 263 206 216 218 255 245 254 252 232 252 254 245 259 50 253
279 284 288 289 290 292 297 302 311 317 322 324 324 328 334 337 282 317 271 331 321 56 347 272 278 150 182 155 266 254 232 203 230 229 149 225 227 246 242 240 247 250 257 248 234 217 55
285 288 291 290 291 293 301 312 318 322 323 321 320 324 332 334 234 242 306 307 34 51 257 299 339 349 345 323 265 275 201 159 194 230 243 227 217 236 236 254 247 260 247 32 57 108 298
295 298 299 299 302 302 306 312 318 321 322 321 318 316 318 244 234 318 329 28 44 150 316 304 338 345 330 315 321 335 208 241 186 172 248 258 254 259 249 275 279 220 69 291 332 351 241
304 298 298 303 298 299 304 310 316 320 321 320 315 313 261 204 226 284 29 53 143 261 273 314 333 320 289 8 333 340 295 239 265 187 229 228 263 233 258 203 246 242 157 172 205 219 257
309 310 292 289 294 293 298 307 315 320 322 320 318 318 283 254 190 134 71 79 213 237 318 344 328 306 322 339 333 360 326 347 244 141 230 227 237 245 236 262 161 258 185 206 149 83 51
313 313 311 312 305 297 295 307 318 325 326 321 320 335 272 233 141 74 74 226 244 240 304 303 288 275 306 317 328 16 329 2 340 45 226 355 357 265 245 237 258 177 228 256 11 165 266
307 312 314 314 305 289 294 311 326 337 331 322 3 352 260 130 89 57 149 236 277 271 273 236 279 275 293 307 294 315 310 305 350 323 338 178 130 286 332 236 243 223 210 107 354 139 205
300 301 309 310 308 296 296 320 338 351 337 38 354 341 290 22 49 85 190 224 272 300 303 281 211 239 229 322 335 347 320 272 325 272 39 309 226 270 249 274 244 268 287 228 202 256 252
294 296 298 303 304 298 287 316 342 5 32 357 345 267 303 102 175 282 290 281 281 290 309 337 295 333 310 307 354 293 326 310 332 342 71 295 326 356 340 344 305 254 254 226 173 31 229
294 291 291 297 299 284 273 302 331 1 12 88 19 351 320 33 134 37 342 296 317 308 299 316 340 28 8 336 323 274 318 313 330 325 1 83 175 116 206 248 270 285 17 1 97 157 249
277 295 281 285 292 273 246 279 317 343 350 90 118 266 190 318 318 326 278 265 297 320 342 351 355 15 11 328 328 351 326 321 325 295 344 140 235 58 259 270 243 69 39 20 63 9 152
270 282 279 284 287 253 238 261 307 336 350 78 72 43 343 282 301 336 344 319 324 313 9 315 8 335 342 351 140 312 318 309 254 310 37 340 304 167 284 301 64 59 26 77 59 13 343
269 276 277 286 273 242 221 224 267 335 33 23 308 329 104 281 324 360 303 326 337 343 309 311 298 26 337 322 315 295 258 247 242 259 313 44 201 234 264 292 266 32 353 89 79 48 164
266 264 268 273 269 232 212 207 220 203 91 141 256 50 53 278 335 296 319 323 338 333 282 319 21 37 273 308 289 323 300 286 276 230 183 191 170 176 250 0 42 227 339 113 110 63 69
260 267 265 267 265 229 211 200 206 209 163 112 280 91 89 283 318 299 344 323 315 329 340 316 349 274 296 343 1 340 331 7 309 347 294 187 147 161 136 56 124 235 229 321 358 283 317
251 263 259 257 248 238 213 196 198 207 197 147 242 170 118 143 263 37 315 307 321 326 333 304 338 325 343 58 39 325 324 321 331 335 341 12 58 130 133 118 199 9 337 353 289 264 222
252 256 260 250 231 227 210 201 195 200 198 151 271 159 118 235 266 106 273 321 292 337 271 302 340 334 23 26 39 8 323 347 10 9 328 345 355 13 4 53 109 19 302 327 75 258 252
251 255 263 243 230 230 206 199 197 199 198 143 262 205 158 244 275 246 252 214 308 244 227 292 357 347 12 59 59 310 74 302 354 196 302 341 349 355 318 42 2 345 55 298 228 102 187
247 248 256 225 230 222 198 192 189 194 193 144 283 292 210 180 247 273 261 252 237 234 209 305 232 285 224 96 225 228 346 344 284 330 185 349 162 223 72 173 250 287 53 26 7 355 350